Retour au catalogue

DELTA 1 DEB

ActifSSO
NORAD 42631·DEBRIS·🇺🇸 United States

Lancé Jun 12, 1975 depuis Vandenberg Space Force Base

Loading…

Prochains Passages (prochaines 24 heures)

TLE

FraisSource: Space-Track

Époque: Sep 14, 2026, 13:18 UTC

1 42631U 75052LQ  26257.55427700  .00000078  00000-0  17215-3 0  9991
2 42631  99.7452 168.0838 0044963  61.1670 299.3970 13.56405886634137

Suivez DELTA 1 DEB en temps réel avec AllMySat

Download on the App Store